Location: East Guldeford
(50.9500°N, 0.7500°E)
Time: 07:22:28
(UTC+00:00)

Cosmos 1470 Rocket - Pass Details

Date: 12 May 2021
Orbit: 604 x 633 km, 82.5° (Epoch: 16 June)

Event Time Altitude Azimuth Distance (km) Brightness Sun altitude
Rises 21:01:17 0° 347° (NNW) 2,941 8.2 -11.1°
Reaches altitude 10° 21:03:33 10° 345° (NNW) 2,029 7.3 -11.3°
Maximum altitude 21:08:01 66° 264° (W) 697 3.9 -11.8°
Drops below altitude 10° 21:12:27 10° 182° (S) 2,013 5.7 -12.2°
Enters shadow 21:12:27 10° 182° (S) 2,019 5.7 -12.2°
